Meteo Giornale » Osservazioni meteo Stati Uniti (USA) » Eastsound-Orcas

ore: 14:55 - Osservazioni Meteo Eastsound-Orcas
Lat. 48° 42' N Lon. 122° 54' W Alt. 8 metri s.l.m.

sereno

18 °C

Sereno

Temp. 24 Ore

11 °C

19 °C

Nord-Ovest

11.1 Km/h

Dew point 15 °C

Umidità 82 %

Visibilità  10 Km

Il sole sorge alle ore 06:27

Il sole tramonta alle ore 19:55

Data e Ora Cielo e Fenomeni T °C DP °C Um. % Pres. hPa Vis. km Vento km/h
Oggi h: 14:55 sereno Sereno 18 15 82 1011 10 NO 11.1
Oggi h: 14:35 sereno Sereno 18 15 82 1011 10 NO 13
Oggi h: 14:15 sereno Sereno 18 15 82 1011 10 NO 13
Oggi h: 13:55 sereno Sereno 18 14 77 1012 10 NO 11.1
Oggi h: 13:35 sereno Sereno 17 14 82 1012 14 NO 11.1
Oggi h: 13:15 sereno Sereno 18 14 77 1012 14 NO 13
Oggi h: 12:55 sereno Sereno 18 14 77 1012 10 NO 11.1
Oggi h: 12:35 sereno Sereno 18 14 77 1013 10 N/NO 11.1
Oggi h: 12:15 sereno Sereno 18 13 72 1013 14 N 9.3
Oggi h: 11:55 sereno Sereno 17 12 72 1013 11 N 7.4
Oggi h: 11:35 sereno Sereno 17 12 72 1014 14 N 9.3
Oggi h: 11:15 sereno Sereno 17 12 72 1014 14 N 5.5
Oggi h: 10:55 sereno Sereno 17 12 72 1014 13 N 9.3
Oggi h: 10:35 sereno Sereno 17 12 72 1014 13 N 9.3
Oggi h: 10:15 sereno Sereno 16 12 77 1014 11 N 7.4
Oggi h: 09:55 sereno Sereno 16 12 77 1014 11 N 7.4
Oggi h: 09:35 sereno Sereno 16 12 77 1014 13 N 0
Oggi h: 09:15 sereno Sereno 15 12 82 1014 13 N 7.4
Oggi h: 08:55 sereno Sereno 15 13 87 1014 13 N 5.5
Oggi h: 08:35 sereno Sereno 14 13 93 1014 13 N 5.5
Oggi h: 08:15 foschia Foschia 14 13 93 1015 10 N 0
Oggi h: 07:55 foschia Foschia 13 13 100 1015 8 N 0
Oggi h: 07:35 foschia Foschia 13 12 93 1014 8 N 0
Oggi h: 07:15 foschia Foschia 11 11 100 1015 8 N 0
Oggi h: 06:55 foschia Foschia 11 11 100 1014 5 N 0
Oggi h: 06:35 foschia Foschia 11 11 100 1014 2 N 0
Oggi h: 06:15 foschia Foschia 11 11 100 1015 8 N 0
Oggi h: 05:55 sereno Sereno 11 11 100 1015 11 N 0
Oggi h: 05:35 foschia Foschia 11 11 100 1015 10 N 0
Oggi h: 05:15 foschia Foschia 11 11 100 1015 10 N 0
Oggi h: 04:55 sereno Sereno 11 11 100 1015 11 N 0
Oggi h: 04:35 foschia Foschia 11 11 100 1015 10 N 0
Oggi h: 04:15 sereno Sereno 11 11 100 1015 11 N 0
Oggi h: 03:55 foschia Foschia 11 11 100 1015 8 N 0
Oggi h: 03:35 foschia Foschia 11 11 100 1015 8 N 0
Oggi h: 03:15 sereno Sereno 11 11 100 1016 11 N 0
Oggi h: 02:55 sereno Sereno 11 11 100 1016 14 N 0
Oggi h: 02:35 sereno Sereno 11 11 100 1016 14 N 0
Oggi h: 02:15 sereno Sereno 11 11 100 1016 14 N 0
Oggi h: 01:55 sereno Sereno 11 11 100 1016 14 N 0
Oggi h: 01:35 sereno Sereno 11 11 100 1016 10 N 0
Oggi h: 01:15 sereno Sereno 11 11 100 1017 14 N 0
Oggi h: 00:55 sereno Sereno 12 11 93 1017 10 N 0
Oggi h: 00:35 sereno Sereno 12 11 93 1017 10 N 0
Oggi h: 00:15 sereno Sereno 12 11 93 1017 10 N 0
Ieri h: 23:55 sereno Sereno 12 11 93 1017 10 N 0
Ieri h: 23:35 sereno Sereno 12 11 93 1017 14 N 0
Ieri h: 23:15 sereno Sereno 12 11 93 1017 10 N 0
Ieri h: 22:55 poco_nuvoloso Poco Nuvoloso 13 11 87 1017 10 N 0
Ieri h: 22:35 poco_nuvoloso Poco Nuvoloso 13 11 87 1017 10 N 0
Ieri h: 22:15 nuvoloso Nuvoloso 14 11 82 1018 10 N 0
Ieri h: 21:55 nuvoloso Nuvoloso 15 11 76 1018 10 N 0
Ieri h: 21:35 molto_nuvoloso Molto Nuvoloso 15 11 76 1018 10 N 0
Ieri h: 21:15 coperto Coperto 16 11 72 1018 10 N 0
Ieri h: 20:55 coperto Coperto 16 11 72 1018 10 S/SE 7.4
Ieri h: 20:35 coperto Coperto 16 11 72 1018 10 N 0
Ieri h: 20:15 coperto Coperto 17 11 67 1018 14 N 5.5
Ieri h: 19:55 coperto Coperto 17 11 67 1018 14 S/SE 9.3
Ieri h: 19:35 coperto Coperto 17 11 67 1018 10 N 5.5
Ieri h: 19:15 coperto Coperto 18 11 63 1018 10 S 9.3
Ieri h: 18:55 coperto Coperto 18 11 63 1018 10 S/SE 7.4
Ieri h: 18:35 coperto Coperto 18 11 63 1018 10 N 0
Ieri h: 18:15 coperto Coperto 18 12 67 1018 10 N 0
Ieri h: 17:55 coperto Coperto 18 12 67 1018 14 N 5.5
Ieri h: 17:35 coperto Coperto 18 12 67 1018 14 N 0
Ieri h: 17:15 coperto Coperto 18 12 67 1019 10 S 7.4
Ieri h: 16:55 coperto Coperto 18 11 63 1019 14 N 0
Ieri h: 16:35 coperto Coperto 18 11 63 1019 10 N 5.5
Ieri h: 16:15 coperto Coperto 18 11 63 1019 10 S 9.3
Ieri h: 15:55 coperto Coperto 19 11 59 1019 10 S/SE 9.3
Ieri h: 15:35 coperto Coperto 19 11 59 1019 10 N 9.3